Location: Unspecified
(0.0000°N, 0.0000°E)
Time: 03:59:54
(UTC+00:00)

Hubble Space Telescope - Pass Details

Date: 11 February 2018
Orbit: 537 x 541 km, 28.5° (Epoch: 21 May)

Event Time Altitude Azimuth Distance (km) Brightness Sun altitude
Exits shadow 04:06:58 16° 155° (SSE) 1,448 3.3 -30.8°
Maximum altitude 04:07:09 16° 152° (SSE) 1,446 3.4 -30.7°
Drops below altitude 10° 04:09:44 10° 113° (ESE) 1,787 4.3 -30.1°
Sets 04:12:42 0° 91° (E) 2,677 5.4 -29.4°
